H-2A DEB, 38347

Orbit data source: Space-Track

H-2A DEB, 38347 is space debris in SSO originally from a launch on Thu, 17 May 2012 UTC launched from the Tanegashima Space Center (TNSTA). Debris objects in space refer to the collection of defunct objects orbiting the Earth. Examples of debris include non-operational satellites, rocket bodies, and fragments generated from explosions, collisions, or faulty payload assembly.

Loading next visibility...
Identifier
38347, 2012-025H
Orbit
SSO
Country
Flag of JPJP / JPN
Related business
Manufacturer
Kawasaki
Mission
Spacecraft
Bus & Motor
Unknown
Mass
~100 kg wet, ~100 kg dry
Launch date (UTC)
2012-05-17 (14 years ago)
Launch vehicle
Unknown
Launch site
Tanegashima Space Center (TNSTA)
Object type
Payload
Rocket body
Debris
Shape & HBR
Half Cyl, 2.0 m
Radar Cross Section
13.425 m², Large (>1 m²)

Expand to show TLE details & history
Last TLE update: 10 hours ago

TLE from 10 hours ago
0 H-2A DEB
1 38347U 12025H   25349.89829615  .00004049  00000-0  41044-3 0  9999
2 38347  98.1857 110.1139 0006380   6.4410 353.6888 14.91487651731461
Epoch: 2025-12-15T21:33Z
TLE epoch observation values (Epoch: 2025-12-15T21:33:32.787Z)
Latitude
-0.00004°
Longitude
61.93704°
Altitude
591.903 km
Speed
7.566 km/s
True Right ascension
07h 20m 27s
True Declination
0° 00' 00"
Sunlit
Object was in full shadow at epoch
Visualization orbit readout
Latitude
Unknown
Longitude
Unknown
Altitude
Unknown
Speed
Unknown
Apparent Right ascension
Unknown
Apparent Declination
Unknown
Sunlit
N/A
Visualization observer readout
Local Sidereal Time
06:18:48
Azimuth
Unknown
Elevation
Unknown
Doppler factor
Unknown
Orbital elements
Apogee altitude
594.781 km
Perigee altitude
585.889 km
Semi-major axis
6,968.472 km
Eccentricity
0.00064
Inclination
98.1857°
RAAN
110.1139°
Arg. of periapsis
6.441°
True anomaly
353.68076°
Mean anomaly
353.6888°
Eccentric anomaly
353.68478°
Mean motion
3.7311 °/min
Orbital period
96.49 mins
BSTAR
0.00041044
Loading maneuver chart data...
Computing Atmospheric mass density...
Loading historical data...
Loading historical data...
Loading historical data...
Loading historical data...
Loading historical data...
Loading historical data...
Loading historical data...

Documentation

Showing up to 5 results
|